Accueil
METAR-TAF:

METAR-TAF

Aéroports :

Corvallis, Oregon, États-Unis

latitude: 44-30N, longitude: 123-17W, altitude: 75 m

Observation

Le bulletin a été fait il y a 57 minutes, à 18:56 UTC
Vent 12 kt de ouest/nord-ouest
Température 7°C
Humidité 70%
Pression 1024 hPa
Visibilité: 16.1 km
Ciel clair

METAR: KCVO 241856Z AUTO 30012KT 10SM CLR 07/02 A3023 RMK AO2 RAE35 SLP239 P0000 T00670022

Heure: 11:53 (19:53 UTC)


TAF: absent

Observations et prévisions météorologiques de plus de 4000 aéroports (messages METAR et TAF).

Les stations disponibles sont représentées par des disques jaunes et rouges sur la carte.

Passer la souris dessus pour voir le nom de la station.

Cliquer dessus pour voir les observations et prévisions météorologiques.

Pour changer de carte: cliquez sur les boutons verts avec une croix noire pour zoomer, sur le bouton vert avec un tiret pour effectuer un zoom arrière, ou sur les flèches vertes pour les cartes adjacentes.


METAR-TAF: